Wind_Speed
9 12 13 14 14 13 14 14 13 12 13 14 15 15 15 15 15 16 17 17 18 19 21 22 23 24 25 25 27 25 26 27 29 32 34 36 38 39 40 41 42 43 45 47 46 45 43
10 12 12 13 13 13 14 14 16 17 17 17 17 18 19 20 21 22 23 24 26 26 27 25 22 19 20 22 26 28 30 31 33 36 39 42 44 46 47 49 52 53 54 54 55 54 53
9 10 9 10 12 15 13 14 15 15 19 22 25 24 24 24 26 28 26 24 22 19 17 18 21 23 25 29 31 33 35 36 39 41 44 48 50 54 57 58 59 61 62 60 59 58 59
9 8 6 8 11 12 13 14 14 14 12 13 16 17 16 17 18 18 18 18 18 20 21 23 26 28 30 30 31 32 33 35 38 41 45 49 54 58 61 64 65 65 67 68 62 64 64
9 9 7 9 11 11 12 14 13 14 13 13 15 16 15 15 17 18 18 18 19 21 23 24 24 24 24 24 26 29 33 37 42 46 50 55 59 61 63 66 68 67 70 69 68 63 65
11 11 8 7 6 7 7 7 8 10 11 13 15 14 14 14 15 16 17 17 18 18 18 18 19 20 21 24 29 33 38 43 47 53 61 67 72 74 63 57 63 66 68 72 72 70 66
13 14 12 9 5 5 5 8 8 13 15 16 15 15 14 15 16 17 16 13 13 16 17 17 18 22 25 30 33 36 43 47 49 56 62 65 65 62 61 60 59 59 60 66 69 68 66
17 16 15 12 9 8 9 10 11 13 17 18 17 17 14 13 12 12 14 14 14 14 14 17 16 23 29 32 35 40 43 47 52 55 58 58 52 48 48 45 42 43 43 46 50 62 67
20 20 16 14 14 12 12 14 13 14 16 18 16 13 11 10 11 13 13 13 14 13 15 16 21 26 30 34 36 40 44 48 51 53 51 43 38 37 39 39 38 35 29 34 36 38 45
24 21 19 18 17 15 16 17 17 16 17 16 13 10 8 10 11 13 14 16 16 16 17 20 24 27 30 35 39 43 48 49 48 46 40 35 35 35 35 35 33 34 30 33 36 36 37
26 23 22 20 18 18 18 18 19 16 16 13 10 9 10 8 11 14 16 17 19 19 22 22 25 28 33 35 40 47 52 52 47 41 37 34 34 34 33 30 21 34 27 28 28 31 32
27 25 23 21 21 20 20 20 19 17 14 13 10 10 10 11 11 15 18 19 19 20 23 25 28 30 33 37 43 47 51 52 46 38 36 33 33 32 25 23 19 19 17 21 22 21 22
28 28 26 25 23 21 22 22 21 19 16 17 14 13 13 13 13 15 18 20 21 21 24 26 29 31 35 38 43 47 50 49 46 38 32 32 30 19 20 20 21 18 19 17 19 21 17
30 30 29 27 24 23 24 23 22 20 18 18 16 17 14 15 16 16 17 20 22 24 25 27 29 34 35 36 42 46 47 43 46 38 34 33 24 24 18 23 19 19 17 20 24 18 21
32 32 30 29 26 25 26 25 24 22 21 20 20 18 19 18 20 18 20 21 23 25 25 28 31 33 38 42 46 49 51 45 45 40 35 34 26 19 19 25 29 24 22 27 29 24 21
32 31 31 31 28 26 26 26 26 24 23 23 21 20 21 20 19 20 21 20 23 25 27 28 30 31 34 37 40 43 46 48 43 40 37 33 27 16 18 22 18 21 22 18 24 22 19
33 32 33 32 30 28 26 27 26 26 25 24 22 20 23 23 22 21 18 19 22 24 26 28 30 32 35 37 40 42 44 47 44 40 37 36 30 18 17 21 20 23 26 20 21 26 27
33 33 34 33 31 29 27 28 26 26 25 24 24 22 23 25 23 22 19 17 20 22 25 27 30 33 34 37 38 40 39 39 43 41 37 35 37 28 18 16 22 26 28 27 29 31 34
35 35 35 34 32 30 29 29 27 26 26 25 24 24 25 25 24 23 21 19 18 20 23 26 28 32 34 37 40 39 39 40 40 40 39 37 35 36 24 18 20 24 25 28 33 38 37
36 36 36 34 32 32 31 30 29 29 27 25 26 25 26 26 25 23 22 21 20 21 22 25 28 32 34 37 40 41 40 40 40 40 40 38 34 34 28 20 23 30 32 33 35 38 34
37 37 36 35 32 31 31 31 31 32 29 28 28 26 27 27 26 25 23 22 21 20 22 24 27 30 33 35 37 39 38 38 38 39 38 38 35 33 24 27 20 19 30 39 41 43 42
40 39 36 36 34 34 33 32 32 33 32 30 28 28 28 27 27 27 25 24 23 22 22 24 26 29 32 35 38 38 39 40 39 38 38 37 34 35 18 22 25 24 18 22 34 44 42
40 39 39 37 35 35 35 34 33 33 32 32 31 29 28 29 29 28 27 26 25 25 24 25 26 29 31 33 35 37 38 38 37 36 37 36 33 33 20 23 26 16 9 12 13 11 11
40 39 39 38 37 35 34 35 35 35 34 33 32 31 30 30 30 30 28 29 27 26 26 27 27 28 31 33 33 35 37 36 36 35 35 34 32 30 24 21 17 10 4 6 8 9 8
39 38 37 37 35 34 33 33 34 35 34 34 34 33 32 30 31 31 30 30 29 28 27 30 30 30 30 31 33 34 36 36 35 34 34 34 32 24 19 16 11 8 9 10 6 16 17
37 37 36 36 35 34 33 32 33 33 33 34 35 36 33 31 31 32 33 31 31 30 29 30 30 31 30 31 32 33 36 39 35 33 34 31 26 20 14 14 11 6 13 13 16 13 18
37 38 36 35 36 35 35 34 32 33 33 34 35 36 34 32 33 34 35 32 32 32 32 31 32 32 31 32 32 33 33 37 36 34 31 28 24 18 13 15 14 15 21 22 14 16 23
39 39 38 37 38 37 35 35 34 34 34 34 35 35 35 35 37 37 36 32 33 33 33 32 34 32 32 33 34 33 32 32 33 32 30 30 28 16 13 15 17 15 17 18 23 29 34
41 39 39 39 39 38 38 37 36 36 35 35 37 39 41 40 39 38 34 34 34 34 34 34 32 36 32 33 35 33 33 33 33 30 30 30 28 26 17 18 22 22 27 29 26 31 35
Wind_Direction
307 331 339 334 331 328 317 303 299 298 295 293 291 287 285 288 287 285 284 282 279 276 273 274 275 277 279 282 280 278 276 274 275 272 271 270 269 270 266 262 261 261 260 260 260 261 260
306 326 325 318 319 325 325 311 289 283 283 285 287 286 284 287 289 287 284 281 280 279 278 278 276 277 280 279 281 282 280 279 277 275 273 272 271 270 267 266 265 265 263 263 262 262 263
295 309 312 312 315 313 320 328 331 312 291 286 285 286 287 291 291 288 285 285 285 282 276 276 280 284 289 292 291 289 289 288 287 286 285 284 281 279 277 274 271 268 266 262 262 261 259
279 284 292 312 319 316 311 307 320 327 326 310 297 295 299 303 299 296 293 291 288 285 284 285 285 288 289 289 290 290 289 290 290 290 289 287 284 280 277 274 271 270 267 264 259 258 258
269 265 279 315 318 314 311 306 308 306 300 297 296 297 300 299 300 299 297 294 290 288 288 288 290 292 296 300 302 302 301 300 297 295 294 292 289 284 277 272 269 267 266 263 260 256 254
248 254 271 289 312 315 319 324 322 310 304 299 296 299 304 308 310 305 301 298 297 298 298 298 302 304 308 311 309 309 309 308 308 305 301 295 292 289 284 277 269 263 260 257 256 250 247
234 241 252 259 278 273 290 295 299 302 301 295 293 297 303 307 307 305 303 304 308 308 312 312 312 312 314 317 317 318 317 313 307 303 300 296 292 290 285 281 280 276 271 264 256 253 257
233 238 248 256 257 248 261 272 285 296 300 297 298 302 304 308 310 309 309 310 310 316 316 318 321 327 328 325 321 317 320 319 315 312 306 299 296 291 287 285 282 276 272 266 264 257 258
233 238 245 252 250 248 250 260 272 288 294 299 302 308 313 317 313 313 313 313 312 313 320 327 330 330 331 325 325 324 326 325 322 317 309 304 298 292 287 287 286 281 279 277 275 266 257
233 237 241 246 245 240 246 259 271 287 297 299 302 309 311 323 320 316 315 315 313 316 322 325 328 329 329 328 328 328 332 331 329 324 313 306 300 297 293 289 287 283 278 277 268 271 267
235 237 240 244 243 242 250 256 268 283 291 294 303 309 314 312 317 316 314 314 314 319 322 326 329 329 329 332 332 333 336 335 336 330 316 310 305 298 292 287 270 277 273 287 276 271 270
236 235 235 236 242 244 248 248 257 270 276 282 291 301 307 310 317 313 312 314 316 318 322 326 328 329 330 336 337 337 339 338 340 331 319 315 309 308 298 300 288 288 282 281 300 299 279
236 233 234 238 241 244 245 244 253 264 266 275 280 290 300 307 317 318 316 316 318 323 323 324 327 331 335 339 339 341 341 339 341 333 325 321 315 291 285 272 272 276 282 290 287 283 274
234 234 235 238 237 239 241 242 251 258 265 273 279 286 293 303 311 315 316 318 318 321 323 325 332 331 334 340 342 341 341 341 340 337 332 329 323 302 268 264 255 278 262 286 283 282 266
231 233 234 235 236 236 240 241 248 253 260 268 277 283 291 296 304 309 313 315 319 322 324 328 330 332 336 341 344 344 342 340 342 339 335 330 332 306 278 262 265 272 266 250 258 264 269
229 231 234 234 235 234 239 241 249 255 261 266 271 278 282 286 292 300 306 312 316 321 325 328 330 333 334 337 339 342 341 339 344 339 337 333 340 312 284 287 279 268 275 258 264 261 268
226 230 234 235 233 233 235 244 247 254 258 267 273 278 283 287 290 293 299 305 312 320 323 327 329 330 333 337 340 342 343 338 345 338 337 335 330 323 292 281 278 265 266 257 260 259 261
224 228 231 233 235 234 236 242 249 257 262 268 273 278 281 285 287 290 294 300 307 316 321 325 327 329 331 335 339 341 342 339 342 339 336 334 331 325 299 273 266 263 263 253 253 249 250
225 225 229 233 235 237 238 244 250 254 262 267 275 280 282 284 284 289 291 296 304 313 318 322 323 325 329 332 336 341 344 341 341 343 339 336 336 330 321 281 258 255 255 252 250 254 249
224 226 229 231 234 239 244 246 248 253 258 265 270 274 278 280 282 285 290 293 299 307 313 318 321 323 327 331 333 339 344 343 342 341 337 338 337 332 330 305 261 245 244 247 251 254 260
223 225 226 231 234 241 245 249 251 255 256 261 268 273 277 281 280 283 288 290 293 300 307 315 319 322 323 326 331 335 340 343 342 341 339 339 339 338 328 313 307 280 253 245 250 259 261
223 225 227 232 237 240 247 249 252 255 258 260 264 269 273 276 278 280 284 288 291 296 303 310 314 318 321 322 327 334 337 340 342 342 340 339 341 340 338 327 331 313 307 260 249 254 267
227 229 232 237 243 247 249 252 254 258 260 262 262 266 272 276 276 278 283 286 290 295 301 306 310 315 318 321 322 330 334 338 342 341 341 339 341 341 354 337 334 335 20 48 6 323 289
233 235 239 243 249 253 256 256 257 259 261 264 267 270 271 273 276 280 285 289 292 294 299 303 308 312 315 317 320 325 330 333 340 339 340 339 341 344 348 344 354 311 172 27 5 285 290
234 239 243 246 251 253 255 256 258 259 261 265 269 270 272 275 275 279 286 291 292 294 297 301 305 309 311 313 318 322 325 330 336 338 337 340 341 344 332 342 0 26 335 285 277 250 263
237 241 244 249 251 253 255 257 260 263 264 266 268 270 272 275 277 279 284 286 290 292 294 296 302 306 308 311 315 319 324 329 334 337 336 338 333 333 321 332 317 289 342 292 291 298 280
239 243 244 246 250 252 256 258 259 262 264 266 268 271 274 274 275 277 282 287 290 292 291 296 299 304 306 309 313 317 321 323 330 332 331 332 325 320 306 304 306 285 292 284 253 293 285
237 240 242 244 247 251 252 255 258 261 264 266 269 270 271 271 272 276 277 285 287 290 290 293 296 300 307 308 310 313 316 318 321 326 324 326 322 313 292 283 292 295 278 285 258 260 268
241 243 246 248 250 251 253 254 256 259 262 265 266 268 271 272 272 275 278 282 286 286 288 293 292 296 304 305 307 308 310 314 316 322 318 322 313 308 286 277 277 274 277 281 284 267 269
Height
5766 5765 5763 5764 5765 5765 5765 5764 5765 5765 5766 5765 5767 5768 5768 5768 5768 5768 5766 5767 5767 5767 5767 5768 5769 5770 5770 5771 5772 5772 5773 5773 5774 5775 5776 5776 5776 5778 5779 5779 5779 5781 5781 5781 5782 5783 5787
5762 5762 5761 5762 5762 5763 5762 5761 5761 5761 5762 5762 5763 5764 5764 5765 5765 5764 5763 5763 5763 5763 5763 5764 5764 5764 5765 5768 5767 5767 5768 5768 5768 5768 5769 5769 5768 5768 5768 5769 5769 5770 5769 5772 5771 5774 5777
5759 5759 5759 5760 5761 5762 5761 5760 5759 5759 5759 5758 5759 5759 5759 5760 5760 5760 5759 5758 5758 5758 5759 5759 5760 5760 5760 5760 5760 5760 5760 5760 5759 5758 5757 5756 5756 5755 5753 5753 5753 5753 5754 5757 5763 5763 5763
5755 5755 5756 5757 5758 5759 5758 5758 5757 5757 5757 5757 5757 5755 5755 5755 5755 5756 5756 5755 5755 5756 5756 5756 5756 5756 5756 5755 5754 5754 5753 5752 5751 5750 5749 5746 5744 5742 5739 5737 5736 5736 5734 5737 5752 5747 5749
5752 5754 5753 5754 5756 5756 5755 5755 5756 5757 5756 5755 5755 5754 5753 5753 5753 5753 5753 5753 5753 5753 5752 5751 5751 5751 5751 5749 5748 5748 5747 5745 5743 5741 5738 5733 5729 5726 5722 5718 5717 5718 5714 5718 5726 5731 5731
5748 5750 5751 5751 5752 5753 5753 5754 5755 5756 5755 5754 5753 5750 5750 5750 5750 5750 5750 5749 5749 5748 5747 5746 5746 5747 5745 5744 5742 5741 5738 5735 5730 5725 5720 5715 5708 5703 5700 5699 5697 5694 5691 5696 5701 5710 5704
5742 5745 5747 5747 5747 5750 5752 5753 5752 5755 5754 5751 5748 5746 5746 5747 5747 5747 5746 5745 5747 5745 5743 5742 5741 5740 5738 5737 5734 5732 5728 5724 5721 5716 5708 5698 5690 5685 5681 5677 5674 5674 5674 5676 5684 5691 5687
5737 5740 5743 5744 5744 5746 5748 5749 5749 5751 5753 5750 5747 5745 5742 5742 5743 5743 5743 5742 5741 5742 5740 5738 5737 5735 5732 5729 5726 5722 5721 5716 5708 5700 5691 5682 5674 5669 5662 5661 5661 5659 5657 5659 5659 5669 5670
5732 5735 5738 5739 5742 5742 5743 5744 5744 5745 5747 5747 5744 5741 5740 5739 5740 5740 5739 5738 5737 5736 5736 5733 5731 5729 5727 5724 5721 5716 5712 5704 5695 5686 5675 5667 5663 5659 5654 5652 5650 5648 5648 5648 5648 5649 5652
5727 5729 5732 5734 5737 5737 5738 5741 5742 5742 5743 5743 5741 5738 5736 5737 5738 5737 5736 5735 5733 5732 5731 5730 5726 5723 5721 5717 5712 5707 5701 5694 5684 5674 5664 5660 5655 5650 5647 5643 5641 5638 5640 5638 5637 5637 5637
5722 5723 5726 5729 5731 5733 5734 5736 5738 5738 5740 5739 5738 5737 5736 5732 5734 5734 5734 5732 5730 5728 5726 5725 5722 5718 5714 5712 5706 5697 5689 5680 5672 5664 5656 5652 5646 5642 5638 5635 5634 5631 5629 5628 5628 5627 5627
5715 5717 5720 5723 5727 5727 5729 5731 5733 5733 5734 5734 5734 5733 5732 5731 5729 5731 5730 5728 5727 5726 5721 5720 5716 5713 5708 5702 5695 5688 5680 5670 5663 5657 5649 5644 5638 5632 5629 5627 5625 5625 5623 5621 5622 5621 5620
5708 5712 5715 5717 5721 5722 5725 5727 5728 5729 5728 5729 5728 5729 5729 5728 5727 5726 5726 5725 5724 5720 5718 5715 5710 5706 5700 5694 5687 5679 5671 5662 5656 5650 5645 5638 5630 5626 5624 5622 5622 5621 5618 5618 5617 5617 5616
5702 5705 5708 5711 5713 5716 5718 5721 5724 5724 5725 5726 5724 5725 5723 5723 5723 5722 5721 5720 5718 5715 5712 5708 5704 5699 5694 5690 5682 5674 5665 5658 5647 5642 5636 5631 5627 5620 5618 5618 5616 5617 5617 5616 5611 5612 5610
5694 5699 5701 5704 5707 5709 5712 5715 5717 5719 5719 5720 5720 5719 5720 5718 5718 5717 5716 5714 5712 5710 5707 5702 5698 5693 5686 5677 5671 5663 5654 5650 5643 5636 5631 5623 5620 5616 5612 5611 5610 5611 5610 5610 5606 5608 5607
5688 5692 5695 5698 5701 5702 5706 5708 5712 5713 5714 5714 5713 5714 5714 5713 5711 5711 5710 5708 5706 5704 5700 5696 5692 5688 5682 5676 5669 5661 5652 5642 5639 5630 5623 5618 5613 5611 5608 5606 5608 5606 5605 5605 5604 5602 5600
5680 5685 5689 5693 5695 5696 5698 5703 5703 5706 5706 5708 5708 5708 5708 5708 5705 5705 5703 5701 5700 5697 5694 5691 5686 5681 5676 5670 5663 5655 5647 5637 5632 5625 5618 5612 5607 5608 5604 5601 5600 5601 5599 5597 5597 5597 5594
5673 5678 5683 5686 5689 5690 5691 5695 5697 5700 5700 5701 5702 5702 5701 5701 5700 5698 5696 5694 5692 5690 5687 5684 5680 5675 5670 5664 5658 5650 5644 5635 5628 5619 5613 5606 5600 5597 5597 5595 5592 5591 5589 5591 5591 5588 5588
5666 5671 5676 5680 5683 5685 5685 5689 5690 5691 5694 5694 5696 5696 5695 5695 5693 5692 5691 5688 5685 5683 5680 5677 5674 5670 5665 5659 5653 5645 5638 5630 5623 5615 5606 5601 5595 5588 5588 5589 5586 5583 5583 5582 5581 5579 5581
5658 5664 5669 5672 5675 5678 5681 5682 5682 5684 5685 5687 5688 5688 5689 5688 5686 5685 5684 5682 5679 5676 5673 5670 5667 5663 5658 5652 5646 5639 5631 5625 5618 5610 5602 5596 5590 5583 5579 5577 5575 5573 5573 5573 5572 5570 5573
5651 5656 5660 5664 5666 5671 5673 5675 5676 5678 5678 5680 5681 5681 5681 5681 5679 5678 5677 5675 5672 5669 5666 5663 5659 5655 5651 5646 5642 5635 5628 5622 5615 5607 5599 5591 5586 5580 5574 5567 5567 5566 5565 5566 5563 5561 5562
5643 5649 5652 5656 5659 5662 5665 5666 5668 5671 5671 5672 5671 5673 5674 5673 5671 5670 5669 5667 5665 5662 5659 5656 5652 5648 5644 5639 5634 5629 5623 5616 5610 5603 5595 5588 5582 5576 5571 5565 5561 5558 5557 5554 5556 5556 5556
5637 5641 5645 5649 5652 5655 5657 5659 5661 5663 5664 5665 5665 5665 5666 5666 5665 5663 5661 5660 5658 5656 5653 5649 5645 5642 5637 5633 5628 5622 5617 5611 5606 5599 5592 5585 5579 5572 5568 5563 5560 5559 5555 5554 5555 5555 5556
5630 5634 5638 5641 5644 5647 5650 5651 5653 5654 5656 5657 5658 5658 5658 5658 5658 5656 5654 5653 5651 5649 5645 5642 5638 5634 5631 5627 5622 5617 5612 5607 5602 5595 5589 5581 5576 5570 5564 5562 5559 5557 5555 5553 5555 5556 5555
5622 5625 5629 5633 5636 5639 5642 5643 5644 5646 5648 5649 5649 5651 5650 5650 5649 5648 5647 5645 5644 5642 5638 5635 5632 5629 5624 5619 5616 5611 5607 5602 5596 5590 5584 5578 5571 5567 5564 5563 5561 5557 5558 5555 5554 5552 5551
5613 5618 5621 5625 5628 5631 5633 5635 5637 5637 5638 5639 5641 5642 5642 5641 5643 5640 5639 5637 5636 5634 5632 5628 5626 5622 5618 5613 5609 5604 5598 5593 5589 5586 5578 5574 5569 5566 5564 5562 5559 5557 5555 5553 5553 5553 5550
5605 5609 5612 5615 5620 5622 5625 5627 5627 5628 5630 5631 5632 5633 5634 5633 5633 5632 5630 5628 5627 5626 5624 5620 5617 5615 5611 5607 5602 5598 5594 5588 5583 5579 5577 5572 5567 5564 5561 5559 5558 5555 5552 5552 5552 5550 5542
5596 5600 5604 5607 5609 5612 5614 5617 5618 5619 5621 5622 5624 5623 5623 5624 5623 5623 5621 5620 5618 5617 5615 5612 5611 5607 5603 5600 5596 5591 5588 5583 5579 5576 5571 5567 5562 5559 5557 5555 5554 5550 5548 5547 5546 5541 5536
5588 5591 5595 5598 5600 5603 5604 5606 5608 5609 5611 5612 5613 5614 5614 5614 5615 5613 5613 5610 5609 5608 5606 5604 5601 5598 5596 5592 5589 5585 5581 5577 5573 5571 5566 5561 5557 5555 5552 5550 5548 5545 5542 5540 5538 5536 5533